Regional Weather Roundup
Issued by NWS

Home | Current Version | Previous Version | Text Only | Print | Product List | Glossary Off
Versions: 1 2 3 4 5 6 7 8 9 10 11 12 13 14 15 16 17 18 19 20 21 22 23 24 25 26 27 28 29 30 31 32 33 34 35 36 37 38 39 40 41 42 43 44 45 46 47 48 49 50

000
ASUS43 KDMX 200306
RWRIA

WEATHER ROUNDUP FOR IOWA
NATIONAL WEATHER SERVICE DES MOINES IA
900 PM CST SUN FEB 19 2017

NOTE: "FAIR" INDICATES FEW OR NO CLOUDS BELOW 12,000 FEET WITH NO
SIGNIFICANT WEATHER AND/OR OBSTRUCTIONS TO VISIBILITY.

* - THESE STATIONS ARE NOT NWS STATIONS...THUS NOT UNDER NWS
QUALITY CONTROL.  THEY ALSO DO NOT REPORT WEATHER SUCH
AS PRECIPITATION OR FOG.

IAZ001>003-012>014-020>022-031>034-043>046-200400-
   NORTHWEST IOWA

CITY           SKY/WX    TMP DP  RH WIND       PRES   REMARKS
CARROLL *      PTCLDY    50  48  93 SE7       29.83S
CHEROKEE *     CLOUDY    53  49  86 S7        29.79S
DENISON *      PTCLDY    57  50  77 SE17      29.78S
LE MARS *      MOCLDY    55  50  82 S7        29.76R
SHELDON *      CLOUDY    55  54  94 SE20      29.74F
SIOUX CITY     CLOUDY    58  51  78 S12       29.76R
SPENCER        CLOUDY    55  48  77 SE14      29.80S
STORM LAKE *   PTCLDY    54  48  82 SE15      29.81S
$$

IAZ055>058-069>071-079>083-090>094-200400-
   SOUTHWEST IOWA

CITY           SKY/WX    TMP DP  RH WIND       PRES   REMARKS
ATLANTIC *     CLOUDY    59  50  72 S7        29.84R
CLARINDA *       N/A     61  52  72 VRB3        N/A
COUNCIL BLFS * PTCLDY    59  54  82 S14G20    29.83R
CRESTON *      PTCLDY    57  48  72 S10       29.88S
HARLAN  *      PTCLDY    57  52  82 S12       29.86R
LAMONI         MOCLDY    61  47  59 SE9       29.89S
RED OAK *      CLOUDY    59  50  72 SW6       29.85R
SHENANDOAH *   MOCLDY    59  54  82 S7        29.85S
$$

IAZ047>049-059>061-072>074-084-200400-
   CENTRAL IOWA

CITY           SKY/WX    TMP DP  RH WIND       PRES   REMARKS
AMES           CLOUDY    54  47  77 SE8       29.88S
ANKENY *       CLOUDY    57  46  67 SE8       29.89S
BOONE *        CLOUDY    52  48  87 SE9       29.86F
CHARITON *     CLOUDY    59  46  63 SE10      29.90S
DES MOINES     CLOUDY    62  46  55 SE10      29.88F
GRINNELL*      CLOUDY    57  47  69 SE12      29.94S
KNOXVILLE *    CLOUDY    61  46  59 SE10      29.89S
MARSHALLTOWN   CLOUDY    56  47  71 SE9       29.91S
NEWTON *       CLOUDY    54  46  76 SE12      29.90S
PELLA *        PTCLDY    60  48  63 SE10      29.92S
PERRY *          N/A     52  46  79 SE12      29.86S
$$

IAZ004>006-015-016-023>025-035-036-200400-
   NORTH CENTRAL IOWA

CITY           SKY/WX    TMP DP  RH WIND       PRES   REMARKS
ALGONA *       PTCLDY    55  48  76 SE18      29.85S
CLARION *      CLOUDY    54  50  87 SE15      29.88S
ESTHERVILLE    PTCLDY    48  47  96 SE9       29.81F
FORT DODGE *   PTCLDY    61  46  59 SE9       29.86S
MASON CITY     CLOUDY    47  42  83 SE9       29.91R
FOREST CITY *    N/A     50  45  81 SE12      29.88S
IOWA FALLS *     N/A     52  45  77 SE9       29.91S
$$

IAZ007>011-017>019-026>030-037>042-050>054-066-200400-
   NORTHEAST IOWA

CITY           SKY/WX    TMP DP  RH WIND       PRES   REMARKS
CEDAR RAPIDS   PTCLDY    53  45  74 SE6       29.96R
CHARLES CITY * PTCLDY    50  45  81 SE13      29.93R
CLINTON *      PTCLDY    54  41  61 SE10      30.03R
DECORAH *      MOCLDY    50  39  66 SE12G18   29.95S
DUBUQUE        PTCLDY    53  39  59 SE13      30.01R
MONTICELLO *   PTCLDY    52  41  66 SE10      29.98S
OELWEIN *      PTCLDY    50  43  76 SE10      29.96R
WATERLOO       PTCLDY    53  42  66 SE9       29.93R
$$

IAZ064-065-067-068-078-200400-
   EAST CENTRAL IOWA

CITY           SKY/WX    TMP DP  RH WIND       PRES   REMARKS
DAVENPORT      PTCLDY    58  44  60 S13       30.02R
IOWA CITY      PTCLDY    52  43  71 SE3       29.99R
MUSCATINE *    CLOUDY    57  45  62 SE7       29.99S
QUAD CITIES    PTCLDY    58  44  60 SE8       30.01R
$$

IAZ062-063-075>077-085>089-095>099-200400-
   SOUTHEAST IOWA

CITY           SKY/WX    TMP DP  RH WIND       PRES   REMARKS
BURLINGTON     PTCLDY    59  47  64 SE10      29.99S
FAIRFIELD *    PTCLDY    61  46  59 SE13      29.95S
KEOKUK *       PTCLDY    61  46  59 SE10      29.99R
OTTUMWA        CLOUDY    63  47  55 SE15      29.93S
WASHINGTON *   CLOUDY    52  45  76 SE9       29.98S
$$

ABBREVIATIONS USED IN REMARKS
   TC - TEMPERATURES IN CELSIUS
  WCI - WIND CHILL INDEX
   HX - HEAT INDEX
  VSB - VISIBILITY
$$




USA.gov is the U.S. government's official web portal to all federal, state and local government web resources and services.